Change the Weather History Date:

Sunday, February 10, 2013

  Actual Average Record
Temperature  
Mean Temperature 34 °F -  
Max Temperature 46 °F 37 °F 68 °F (1959)
Min Temperature 23 °F 15 °F -11 °F (1979)
Degree Days  
Heating Degree Days 30    
Moisture  
Dew Point 26 °F    
Average Humidity 63    
Maximum Humidity 78    
Minimum Humidity 42    
Precipitation  
Precipitation 0.02 in - - ()
Sea Level Pressure  
Sea Level Pressure 30.10 in    
Wind  
Wind Speed 3 mph (SSE)    
Max Wind Speed 13 mph    
Max Gust Speed 22 mph    
Visibility 10 miles    
Events Rain    
Averages and records for this station are not official NWS values.
T = Trace of Precipitation, MM = Missing Value Source: NWS Daily Summary

Daily Weather History Graph

Daily Weather History Graph

Search for Another Location

Airport or City:

Trip Planner

Search our weather history database for the weather conditions in past years. The results will help you decide how hot, cold, wet, or windy it might be!

Date:

Astronomy

Feb. 10, 2013 Rise Set
Actual Time 7:28 AM EST 6:00 PM EST
Civil Twilight 7:00 AM EST 6:28 PM EST
Nautical Twilight 6:28 AM EST 7:00 PM EST
Astronomical Twilight 5:57 AM EST 7:31 PM EST
Moon 7:17 AM EST (2/10) 6:49 PM EST (2/10)
Length of Visible Light 11h 27m
Length of Day
10h 31m
New Moon, 0% of the Moon is Illuminated
Feb 10
New Moon
Feb 17
First Quarter
Feb 25
Full
Mar 4
Last Quarter
Mar 11
New

Hourly Weather History & Observations

Time (EST) Temp. Windchill Dew Point Humidity Pressure Visibility Wind Dir Wind Speed Gust Speed Precip Events Conditions
12:54 AM 24.1 °F - 17.1 °F 75% 30.31 in 10.0 mi Calm Calm - N/A   Clear
1:54 AM 23.0 °F - 17.1 °F 78% 30.29 in 10.0 mi Calm Calm - N/A   Clear
2:54 AM 24.1 °F - 18.0 °F 77% 30.29 in 10.0 mi Calm Calm - N/A   Clear
3:54 AM 25.0 °F - 18.0 °F 75% 30.26 in 10.0 mi Calm Calm - N/A   Clear
4:54 AM 25.0 °F - 19.0 °F 78% 30.26 in 10.0 mi Calm Calm - N/A   Clear
5:54 AM 26.1 °F - 19.0 °F 75% 30.27 in 10.0 mi Calm Calm - N/A   Clear
6:54 AM 27.0 °F - 19.0 °F 72% 30.25 in 10.0 mi Calm Calm - N/A   Clear
7:54 AM 28.0 °F 21.7 °F 19.9 °F 72% 30.25 in 10.0 mi Variable 5.8 mph - N/A   Scattered Clouds
8:54 AM 30.0 °F - 21.9 °F 72% 30.25 in 10.0 mi Calm Calm - N/A   Partly Cloudy
9:54 AM 35.1 °F - 21.9 °F 59% 30.20 in 10.0 mi Calm Calm - N/A   Clear
10:54 AM 37.9 °F 34.4 °F 21.9 °F 53% 30.20 in 10.0 mi SE 4.6 mph - N/A   Mostly Cloudy
11:54 AM 39.9 °F - 24.1 °F 53% 30.17 in 10.0 mi Calm Calm - N/A   Overcast
12:54 PM 44.1 °F 40.8 °F 23.0 °F 43% 30.11 in 10.0 mi SSE 5.8 mph - N/A   Scattered Clouds
1:54 PM 46.0 °F 43.9 °F 24.1 °F 42% 30.06 in 10.0 mi South 4.6 mph - N/A   Overcast
2:54 PM 46.9 °F - 27.0 °F 46% 30.01 in 10.0 mi East 5.8 mph - N/A   Overcast
3:54 PM 46.9 °F - 26.1 °F 44% 30.03 in 10.0 mi SSE 5.8 mph - N/A   Overcast
4:54 PM 46.0 °F 43.9 °F 28.0 °F 50% 30.01 in 10.0 mi East 4.6 mph - N/A   Overcast
5:54 PM 45.0 °F 42.6 °F 28.0 °F 52% 29.99 in 10.0 mi ESE 4.6 mph - N/A   Mostly Cloudy
6:54 PM 43.0 °F - 28.0 °F 56% 29.96 in 10.0 mi Calm Calm - N/A   Clear
7:54 PM 46.9 °F - 30.0 °F 52% 29.92 in 10.0 mi SSE 9.2 mph - 0.00 in Rain Light Rain
8:54 PM 46.9 °F - 35.1 °F 63% 29.92 in 6.0 mi South 12.7 mph 21.9 mph 0.01 in Rain Light Rain
9:54 PM 46.0 °F 41.0 °F 37.9 °F 73% 29.90 in 10.0 mi South 10.4 mph - 0.01 in   Overcast
10:54 PM 46.9 °F - 37.9 °F 71% 29.89 in 10.0 mi South 10.4 mph 18.4 mph N/A   Overcast
11:17 PM 46.4 °F 41.5 °F 39.2 °F 76% 29.86 in 10.0 mi South 10.4 mph - N/A   Overcast
11:54 PM 46.9 °F - 39.0 °F 74% 29.86 in 10.0 mi South 9.2 mph - N/A   Overcast